Zurück zum Katalog

STARLINK-33924

AktivKommunikationSSO
NORAD 64149·PAYLOAD·🇺🇸 United States

Gestartet May 27, 2025 von Vandenberg Space Force Base

Loading…

Nächste Überflüge (nächste 24 Stunden)

TLE

AktuellSource: CelesTrak SupGP

Epoche: Sep 15, 2026, 02:35 UTC

1 64149C 25112D   26258.10812500  .00039373  00000+0  12220-2 0  2586
2 64149  97.2835 305.2258 0001237  89.4059 149.6602 15.33426221    11

Verfolge STARLINK-33924 in Echtzeit mit AllMySat

Download on the App Store